Location: Spruce Knob
(38.6995°N, 79.5330°W)
Time: 21:06:13
(UTC-04:00)

A-11 Canister half - Pass Details

Date: 05 February 2022
Orbit: 1513 x 1686 km, 47.2° (Epoch: 26 May)

Event Time Altitude Azimuth Distance (km) Brightness Sun altitude
Rises 20:12:09 0° 300° (WNW) 4,713 12.5 -29.1°
Reaches altitude 10° 20:15:15 10° 298° (WNW) 3,711 11.8 -29.7°
Maximum altitude 20:24:28 69° 218° (SW) 1,601 9.0 -31.5°
Enters shadow 20:27:08 49° 156° (SSE) 1,869 9.1 -32.0°
Drops below altitude 10° 20:33:35 10° 137° (SE) 3,665 - -33.3°
Sets 20:36:37 0° 135° (SE) 4,652 - -33.9°
